RH
55 37 33 25 20 13 12 8 8 13 14 10 17 12 12 11 13 34 55 54 56 58 71 92 88 87 81 77 75 80 80 80 78 87 93 96 96 95 94 93 92 92 93 88 97 96 96 91 94
36 30 26 19 17 12 7 7 10 9 10 16 15 18 21 20 11 39 49 56 57 56 75 74 89 89 82 76 76 74 78 79 80 83 91 94 96 96 95 91 91 88 85 96 96 91 83 77 74
36 28 21 16 10 8 7 7 6 7 9 14 18 20 20 23 27 31 52 56 59 56 74 72 81 88 85 78 74 75 76 77 80 80 86 89 92 92 95 89 86 85 78 86 94 84 70 70 75
22 18 15 16 13 9 8 6 11 11 12 12 14 18 20 26 38 40 51 56 56 57 61 78 77 86 88 83 77 76 77 80 81 84 83 85 90 90 94 92 91 81 72 79 87 78 59 62 80
23 20 20 18 14 10 9 8 11 14 12 13 13 16 16 20 40 51 49 57 54 56 59 83 81 82 89 85 82 80 76 78 80 82 84 84 90 85 93 87 83 78 71 74 81 69 53 85 82
25 20 17 14 10 9 10 9 10 13 11 12 15 16 14 18 40 49 52 47 53 56 60 69 82 87 84 84 81 80 76 77 79 79 78 85 90 88 89 82 77 75 70 69 75 68 68 84 78
29 23 19 14 13 11 10 9 10 10 11 12 12 15 12 15 29 46 53 45 49 56 65 65 81 91 88 88 81 78 78 80 80 81 80 83 94 92 90 82 77 74 83 74 83 71 77 84 71
32 24 19 16 15 13 12 14 12 12 10 8 10 15 14 11 23 48 52 52 50 56 64 62 66 78 81 88 91 81 78 82 81 82 80 84 93 94 90 84 82 76 79 72 79 79 82 84 68
30 28 23 18 16 15 14 16 12 16 16 12 14 14 14 23 32 46 43 42 46 56 63 62 58 62 72 73 82 88 84 75 85 84 84 83 94 96 90 84 82 79 75 76 78 80 86 85 75
33 28 22 15 15 16 14 17 15 16 19 18 17 14 16 23 35 42 40 36 35 36 42 50 60 57 58 71 79 86 88 92 85 89 90 84 82 81 82 79 80 79 76 77 78 78 84 77 76
29 32 19 20 20 23 20 19 16 20 23 16 18 18 18 18 22 27 36 39 33 31 30 37 42 54 61 57 65 84 86 86 83 79 83 81 76 77 72 76 77 78 75 75 79 90 86 64 67
33 26 25 24 23 30 29 21 22 22 22 17 16 17 19 18 20 22 26 29 36 34 32 32 36 37 44 51 53 61 82 85 89 85 84 82 78 76 68 66 68 67 69 64 76 80 70 66 65
33 31 24 24 28 31 29 29 27 24 18 15 15 18 19 20 20 19 21 24 28 38 40 39 38 39 36 40 42 46 53 79 88 90 87 82 83 76 68 62 60 62 63 57 72 68 70 78 70
24 26 31 29 30 27 28 25 21 17 14 14 16 17 17 19 22 23 23 25 27 30 37 41 43 40 41 36 38 37 43 52 76 88 93 85 88 79 71 65 58 58 56 55 72 65 79 77 67
35 44 34 28 26 29 27 33 27 16 14 16 17 17 19 19 22 23 26 27 29 31 34 37 43 45 42 44 42 38 43 82 66 84 94 91 94 84 77 72 62 57 55 55 75 68 70 70 64
39 35 40 21 24 24 33 30 15 11 18 23 21 23 25 25 26 29 30 31 32 35 34 37 41 46 49 45 48 49 48 66 87 82 89 91 92 92 86 78 67 58 59 60 71 70 70 72 61
30 37 28 22 21 26 36 36 21 21 26 26 26 25 24 26 25 27 32 33 37 46 49 45 45 46 51 48 49 55 56 59 78 89 82 86 91 92 93 82 75 64 61 64 70 74 70 63 63
49 22 18 20 17 22 37 37 29 23 23 22 22 23 25 26 25 42 55 66 69 70 68 58 51 53 50 56 54 68 70 69 69 82 87 84 92 96 97 92 85 74 68 74 71 74 74 64 71
27 31 33 24 21 26 31 33 29 25 25 29 26 23 22 27 44 55 70 81 82 77 74 70 58 56 55 62 63 73 85 83 87 88 91 96 87 91 99 99 95 84 79 82 81 72 73 74 73
37 36 36 29 26 29 28 29 25 22 23 25 38 37 38 42 50 59 67 76 84 90 98 85 78 62 60 66 70 77 77 79 84 95 92 88 88 90 97 97 96 92 82 90 85 84 79 76 83
40 41 36 34 26 24 28 34 24 19 25 42 43 47 49 52 56 64 71 80 88 97 100 99 90 87 82 82 80 81 82 84 84 88 95 96 98 86 94 98 95 97 93 90 90 84 85 88 87
41 28 30 34 36 48 25 47 27 20 44 47 45 45 50 55 58 60 66 75 82 88 97 100 100 93 92 91 87 90 90 88 89 90 96 100 95 89 94 95 95 96 99 100 94 94 84 86 94
39 30 34 38 42 42 35 46 31 20 29 50 45 47 50 50 50 50 53 59 68 80 87 92 96 99 100 89 92 89 83 80 81 92 98 99 87 100 98 95 96 100 99 100 98 96 96 89 88
32 43 30 29 43 70 38 40 39 39 45 50 42 41 42 41 40 40 41 46 56 64 74 79 85 92 99 100 100 98 92 93 97 97 98 100 97 96 99 99 98 98 99 100 100 94 98 96 88
26 29 58 60 59 46 46 83 95 78 62 51 46 42 42 43 39 41 43 47 50 56 59 64 68 75 85 94 99 100 100 96 94 95 95 98 99 100 99 100 99 100 98 98 97 98 99 98 93
30 24 45 86 66 74 44 91 92 92 93 95 92 91 83 72 53 51 46 50 46 53 55 57 60 62 65 75 84 98 100 100 100 98 89 95 98 98 91 95 100 100 99 98 100 100 99 99 97
29 30 20 41 36 44 29 83 94 83 92 95 95 92 93 95 80 61 46 46 56 54 54 53 53 54 55 61 67 69 81 95 100 100 100 99 96 96 88 93 98 99 98 100 100 100 100 99 97
20 18 42 32 73 45 23 79 94 95 94 94 95 96 96 94 90 86 57 48 47 53 62 60 64 53 53 54 56 62 62 66 86 98 100 100 99 98 98 95 95 96 96 95 98 100 100 100 96
51 58 55 33 33 66 48 92 95 94 94 94 95 94 95 96 96 91 74 52 51 52 53 56 61 68 58 51 53 54 57 57 61 81 92 96 99 100 99 97 99 99 93 92 92 98 99 100 96
61 76 54 64 82 56 46 92 93 94 94 91 90 60 60 66 82 85 70 61 47 43 44 45 52 56 62 60 56 52 50 56 55 58 71 87 94 94 99 100 90 97 100 98 97 98 98 100 100
Wind_Speed
5 3 3 5 5 5 10 6 10 6 5 7 1 6 6 13 6 2 4 4 4 13 19 19 20 20 21 21 18 18 20 20 18 18 17 17 16 16 15 14 14 13 12 12 15 15 15 15 14
2 3 5 3 6 8 7 9 10 11 6 1 4 7 8 11 9 4 7 5 6 11 18 19 20 20 20 21 20 19 19 19 18 17 17 18 17 17 15 16 15 13 12 12 13 12 11 10 10
3 4 5 4 6 8 5 1 7 5 6 6 4 5 4 4 3 1 5 5 7 11 16 18 20 20 20 20 21 20 20 20 18 18 17 17 16 16 17 19 17 14 13 11 11 9 7 8 11
4 5 4 6 11 10 7 4 3 6 6 7 9 5 4 2 1 3 4 6 10 12 13 17 18 20 20 19 20 19 19 20 20 18 17 16 15 15 18 18 17 12 12 13 11 8 5 12 12
5 3 7 7 12 11 7 8 5 9 9 8 10 14 3 3 4 5 5 6 10 11 12 14 17 19 20 20 20 20 20 19 19 19 17 16 15 17 20 18 13 11 11 12 12 10 11 12 15
4 3 7 10 11 4 7 9 10 12 11 8 6 13 7 6 7 6 6 7 9 12 11 11 17 19 18 19 19 20 20 21 20 19 18 17 17 19 18 17 11 13 12 13 13 11 15 14 16
7 6 13 14 14 13 10 4 12 13 14 14 6 10 12 6 8 7 7 8 9 11 12 11 14 17 18 19 19 21 22 22 21 20 18 18 17 19 17 14 11 13 14 15 14 13 16 15 15
6 4 10 8 10 10 1 4 5 11 15 9 6 6 11 7 11 8 7 8 11 12 12 13 13 16 16 17 20 21 21 22 22 21 19 17 18 18 16 14 12 12 14 12 17 15 15 16 15
3 6 10 13 11 10 1 6 5 3 11 6 7 13 7 6 7 9 8 9 10 12 13 14 15 16 18 18 19 21 21 22 21 21 20 20 17 16 15 13 14 13 13 12 16 17 13 18 16
7 10 11 8 9 9 10 9 13 10 11 13 13 13 13 5 7 11 12 13 15 15 14 14 16 16 17 16 17 19 20 20 21 21 21 20 18 16 14 13 13 14 12 14 17 18 15 15 15
7 12 14 11 10 12 15 15 13 15 17 17 14 15 13 17 17 15 17 17 18 18 17 16 15 15 16 18 18 16 20 22 23 25 25 24 22 21 17 12 14 14 14 14 17 14 17 15 15
12 17 17 18 16 13 17 17 18 17 19 18 18 13 14 13 15 16 20 21 21 21 21 19 16 15 14 16 20 20 19 21 23 24 25 28 21 22 18 15 16 15 16 19 18 18 17 14 14
17 20 18 15 17 19 20 21 22 21 19 18 19 20 20 18 20 23 22 22 22 22 23 22 20 18 17 17 19 21 21 22 20 24 27 29 22 24 20 17 18 17 19 21 19 19 17 14 15
12 12 16 17 19 20 23 25 20 20 19 20 20 22 22 22 20 25 24 22 23 22 23 23 23 22 21 23 24 23 23 19 22 23 26 28 25 29 24 19 20 18 19 20 20 18 17 18 16
12 18 18 20 19 17 16 23 22 24 19 17 19 19 21 18 21 21 25 26 23 22 22 22 22 22 22 22 24 25 21 21 17 21 24 29 26 29 27 21 21 20 19 18 24 18 17 18 16
17 18 18 7 2 6 7 27 19 16 6 13 14 13 13 15 14 16 17 22 20 17 17 18 18 19 23 24 22 23 21 20 23 22 23 28 29 27 28 27 25 21 20 21 22 20 19 18 19
15 16 18 16 8 7 13 22 10 7 11 16 16 15 13 12 13 8 7 8 12 12 13 16 19 21 22 25 22 22 21 20 18 23 25 24 27 26 28 32 28 23 22 22 21 22 21 21 23
14 20 24 24 16 14 19 28 25 22 22 23 22 19 16 13 12 2 5 5 7 7 9 12 15 19 20 21 21 20 18 17 16 17 23 27 24 26 26 29 31 28 22 21 21 22 21 21 21
23 24 27 26 22 23 24 28 26 21 20 19 18 20 17 10 7 2 1 5 7 5 4 5 11 14 19 20 22 20 19 17 15 15 17 18 25 26 26 25 27 30 26 26 23 18 23 20 23
20 25 29 28 20 20 24 26 23 22 22 17 11 10 7 2 2 3 5 8 10 9 11 5 3 9 16 17 19 17 17 17 15 14 16 19 20 27 26 26 26 30 32 26 28 25 18 20 25
22 23 26 28 28 26 24 28 26 26 10 4 2 4 4 4 4 7 10 14 13 13 12 10 2 2 8 11 14 11 14 15 14 17 16 15 16 22 24 25 26 27 31 34 31 31 29 22 25
28 23 28 28 24 20 22 21 22 18 10 6 6 7 6 8 10 11 11 16 17 18 18 18 9 5 6 9 13 12 12 12 12 13 13 13 17 20 19 22 23 23 28 29 34 33 38 32 26
26 24 25 26 24 23 25 15 19 19 16 11 8 10 9 12 12 12 13 17 19 21 22 22 19 22 4 8 7 6 7 8 9 9 9 9 15 17 20 20 19 25 27 28 35 33 27 33 31
17 15 23 22 18 17 23 22 21 12 8 15 11 11 12 13 13 14 17 19 21 24 24 26 24 24 21 18 8 6 7 7 6 6 7 8 11 12 17 21 22 24 24 26 32 36 35 33 29
21 20 9 12 12 16 10 7 9 17 16 13 12 12 14 14 14 13 15 17 23 26 25 24 25 26 26 24 22 15 7 3 5 6 6 7 9 13 17 19 21 23 24 27 27 31 32 33 32
22 18 10 11 10 10 13 6 5 14 13 13 11 11 12 13 14 14 14 18 22 24 26 27 24 24 26 27 24 22 17 11 4 0 4 8 10 11 12 17 23 24 26 30 25 27 29 31 33
17 18 18 13 19 15 13 6 7 12 11 15 14 15 15 15 15 16 15 19 22 25 26 27 26 25 27 25 23 25 21 18 13 6 3 9 11 13 14 15 18 23 27 26 27 31 30 31 31
19 17 13 10 9 17 16 7 8 15 16 16 16 14 12 14 17 16 17 20 21 21 23 26 29 27 25 25 23 21 21 20 16 13 9 6 12 15 17 18 19 19 20 26 23 28 29 27 28
16 6 7 11 11 7 11 5 8 14 13 15 16 16 15 14 12 13 18 21 22 22 22 23 24 26 27 24 23 21 20 20 20 15 14 11 6 8 17 21 21 23 23 22 24 25 27 33 33
11 6 9 6 7 11 9 4 9 11 16 17 16 16 16 15 13 12 17 21 23 24 25 25 25 23 23 23 21 20 19 18 19 19 18 16 13 9 12 16 24 23 24 25 24 27 27 27 27
Wind_Direction
314 275 221 221 230 234 253 236 246 218 228 214 323 235 278 258 293 308 129 117 123 161 160 168 173 172 169 172 171 166 173 175 175 168 167 165 161 160 159 154 147 139 127 121 112 123 126 129 128
264 228 224 261 253 229 255 209 217 237 210 227 232 238 247 250 251 98 163 155 126 162 161 174 180 177 176 177 175 177 176 180 179 177 174 171 171 169 166 160 153 148 138 129 130 137 135 141 142
230 230 247 241 250 255 318 79 267 241 257 217 234 248 250 248 72 169 85 152 157 156 162 178 188 184 182 182 179 181 181 183 184 182 180 179 177 175 168 158 156 158 151 148 140 147 136 152 145
220 209 232 249 251 259 266 310 278 232 220 224 235 246 160 307 137 157 144 157 168 163 164 178 194 190 189 187 184 188 188 188 186 184 188 187 184 177 168 164 165 171 164 170 164 156 150 148 149
224 262 254 239 261 268 275 267 245 238 234 215 214 242 224 183 175 164 158 156 164 169 169 165 192 192 193 196 192 192 196 196 196 193 194 193 184 174 165 171 182 171 170 170 167 166 161 141 142
226 275 255 262 273 225 261 262 234 236 242 228 225 247 249 125 190 172 172 168 167 168 172 176 187 192 199 199 199 196 198 197 198 200 201 192 182 174 175 181 188 169 160 163 169 175 159 147 135
265 248 258 277 283 286 277 279 242 244 242 235 228 252 241 170 199 176 186 186 185 177 177 176 184 190 200 204 206 205 202 202 200 197 195 193 184 179 179 181 184 175 166 167 171 182 165 155 149
284 280 270 261 271 293 111 245 275 258 255 255 266 246 246 245 179 185 176 197 198 192 192 190 188 192 201 206 208 207 208 208 204 202 197 191 185 185 182 181 186 179 176 190 181 182 173 169 167
273 254 261 266 272 277 33 264 210 315 271 242 216 261 11 12 165 193 192 190 201 204 207 205 203 200 202 204 206 208 209 210 208 206 197 190 180 180 185 176 186 177 176 185 177 181 171 169 170
227 245 269 311 323 289 305 275 291 274 262 250 243 248 265 257 222 214 212 211 208 206 209 209 212 211 209 201 207 203 206 207 205 201 195 189 188 184 184 184 187 175 178 185 180 177 171 158 161
217 247 273 302 292 293 280 278 273 268 263 268 254 252 244 236 234 243 243 231 228 224 215 211 206 210 215 216 210 207 210 207 206 205 201 195 190 189 176 173 180 181 187 182 178 177 173 183 166
258 256 259 274 277 270 272 283 273 266 262 272 278 262 264 260 264 249 244 244 236 238 225 215 210 210 214 221 220 215 209 209 209 208 202 197 193 177 181 183 183 183 179 174 180 180 184 186 171
250 265 274 273 266 268 277 266 266 263 267 268 262 263 267 255 253 251 238 239 237 233 235 227 223 228 227 225 230 225 213 204 211 208 204 199 192 177 184 185 185 186 182 184 184 188 173 176 179
290 292 276 271 269 271 273 270 266 254 255 252 255 259 264 262 249 254 249 240 231 231 230 236 237 233 232 229 226 230 223 220 202 207 202 196 194 183 184 188 188 188 187 188 183 191 174 175 175
279 278 274 266 257 243 286 272 246 256 256 262 267 267 265 259 263 256 250 241 230 230 232 234 236 229 222 217 220 223 221 222 225 201 201 196 195 191 188 194 190 190 190 190 178 189 176 172 177
259 266 272 241 236 218 212 270 298 296 253 259 270 268 268 261 250 254 251 239 238 232 230 225 226 223 219 213 212 215 217 213 218 211 202 200 201 196 192 194 192 193 188 188 172 181 181 175 188
237 262 268 266 220 259 213 276 298 322 286 274 272 266 272 254 235 249 280 242 245 248 245 237 226 224 213 213 207 207 211 213 208 214 211 204 199 199 199 198 197 195 190 190 176 180 183 187 192
277 279 282 280 271 250 246 265 278 281 279 272 269 266 267 263 253 32 287 283 281 272 271 248 227 218 211 201 200 195 202 205 203 199 214 216 203 200 198 202 203 199 197 191 187 179 187 182 178
279 280 278 279 282 277 273 274 277 279 273 272 267 265 269 285 71 5 22 11 8 7 321 281 232 211 199 190 189 188 194 198 196 199 202 203 216 209 201 198 199 200 197 192 188 193 182 182 178
277 275 278 280 281 278 278 273 276 276 280 284 311 301 314 344 44 27 27 21 32 27 6 350 294 212 193 188 186 188 197 195 195 195 205 212 214 215 207 207 201 199 193 195 188 183 182 182 163
270 268 277 283 297 286 278 274 274 264 270 110 98 83 53 35 44 33 40 28 29 28 14 2 46 181 176 175 176 178 166 169 185 200 199 198 203 214 213 212 211 201 195 194 192 183 176 173 174
283 292 292 291 290 282 283 282 280 275 169 174 138 92 82 62 56 39 32 30 27 18 24 34 41 140 169 171 170 177 169 171 186 193 200 202 204 212 211 213 213 210 202 195 194 187 186 183 175
296 300 290 287 277 275 270 271 264 259 228 160 117 96 80 65 55 48 42 37 33 26 27 34 49 58 97 160 164 162 159 158 167 175 180 197 214 216 219 217 218 209 206 198 195 195 193 193 190
336 335 306 279 262 261 265 260 262 275 308 125 103 89 78 66 56 45 39 37 38 36 29 31 35 38 53 66 99 137 163 164 161 170 178 194 219 226 228 226 222 215 214 205 202 207 201 199 199
340 323 300 293 283 277 344 333 33 53 71 82 71 71 71 61 53 44 34 28 31 35 32 31 31 34 35 46 50 57 67 134 173 186 192 195 201 217 221 222 218 220 226 218 211 207 206 205 205
313 302 301 302 307 320 314 315 63 63 57 63 60 51 56 57 56 48 33 33 30 29 31 32 28 31 33 33 37 40 46 52 66 238 215 221 218 227 236 234 230 224 222 223 214 212 211 208 209
310 288 309 286 270 267 267 102 102 82 74 52 44 38 27 24 29 35 41 37 35 21 29 27 23 26 30 28 27 32 34 31 20 357 247 237 233 237 237 222 225 232 231 225 218 220 216 214 218
295 315 303 286 263 258 247 81 32 34 43 33 31 22 26 30 22 17 20 25 29 34 22 26 21 17 22 22 21 19 21 25 19 12 358 270 257 251 237 232 228 224 224 227 225 222 221 220 223
320 4 335 301 275 286 277 71 24 39 38 39 23 14 12 11 20 18 10 16 19 17 19 19 20 12 11 13 12 12 10 12 16 11 358 348 302 254 245 233 227 227 226 224 224 228 231 229 232
36 1 349 337 348 304 291 77 55 40 31 24 16 14 12 11 13 14 15 10 10 11 8 8 8 3 5 8 4 4 1 3 7 2 356 347 338 311 270 245 237 237 229 227 226 227 231 233 230